STAR ONE C4 (40733 NORAD) Tracking and Keplerian Element Data

This shows tracking and keplerian element data for the satellite.

Feedback or suggestion? Click here.




ElementValue
Catalog40733
NameSTAR ONE C4
Epoch Orbit1380
Epoch Day110.14534483
Epoch Year2019
RAAN55.9951
Inclination0.0451
Eccentricity0.0002983
Argument of Perigee329.6024
Mean Anonmoly164.6519
Mean Motion1.00273343
Decay Rate-2.84E-06
L11 40733U 15034B 19110.14534483 -.00000284 00000-0 00000+0 0 9998
L22 40733 0.0451 55.9951 0002983 329.6024 164.6519 1.00273343 13808

Live tracking and technical data element details for STAR ONE C4 (NORAD 40733). STAR ONE C4 can be tracked NOW for your location showing map with azimuth and elevation plus other details from your city location.

Track the satellite on the map from your city or location and see movement details for azimuth, elevation, latitude, longitude, range, height, and movement on the map or in text.







IsCatalogInMostPopularTable: catalog: 40733, numindb: 287
Update: records affected: 1



GetName: 40733 STAR ONE C4

Hit Count: updated at: Sat, 20 Apr 2019 21:07:22 GMT